www.pogodaiklimat.ru

Погода и климат >> Архив погоды >> Парагвай >> Paraguari


ПОГОДА в Paraguari

  • Прогноз погоды в Paraguari
  • Монитор погоды в Paraguari
  • Климат города

АРХИВ ПОГОДЫ в Paraguari

Время (UTC), дата Ветер
(напр.,м/с)
 
Видим.   Явления Облачность Т
(С)
Тd
(С)
f
(%)
Тe
(С)
Тes
(С)
Комфортность P
(гПа)
Po
(гПа)
Тmin
(С)
Tmax
(С)
R
(мм)
R24
(мм)
S
(см)
03 16.06 штиль 0 20 км 10/0 1500 м
[Ac As]
+9.8 +8.1 89 +9 +9 1020.2 1013.9
06 16.06 штиль 0 20 км 10/0 1500 м
[Ac As]
+8.8 +7.3 90 +8 +8 1028.3 1014.0
09 16.06 штиль 0 20 км 10/0 1500 м
[Ac As]
+5.8 +4.4 91 +5 +5 1029.1 1014.6
12 16.06 штиль 0 20 км ясно +4.4 +1.4 81 +3 +6 1029.4 1014.8 +2.0
15 16.06 штиль 0 20 км ясно +10.0 +3.6 64 +10 +22 опасность
простуды
1030.0 1015.8
18 16.06 штиль 0 20 км ясно +15.0 +4.2 48 +15 +23 1028.0 1014.0
21 16.06 штиль 0 20 км ясно +14.4 +3.6 48 +14 +14 1027.1 1013.0
00 17.06 штиль 0 20 км ясно +9.4 +3.9 68 +9 +9 1028.3 1014.0 +16.0
03 17.06 штиль 0 20 км ясно +5.8 +3.9 88 +5 +5 1029.5 1015.0
06 17.06 штиль 0 20 км ясно +5.0 +3.1 88 +4 +4 1028.5 1014.0
09 17.06 штиль 0 20 км ясно +3.0 +1.3 89 +2 +2 1028.6 1014.0
12 17.06 штиль 0 20 км ясно +5.0 +2.5 84 +4 +6 1029.2 1014.7 +1.0
15 17.06 штиль 0 20 км ясно +13.4 +3.6 51 +13 +25 опасность
простуды
1030.1 1016.0
18 17.06 штиль 0 20 км ясно +18.0 -0.7 28 +18 +26 1027.9 1014.0
21 17.06 штиль 0 20 км 4/0 1500 м
[Ac trans]
+16.0 -0.7 32 +16 +16 1027.0 1013.0
00 18.06 штиль 0 20 км 4/0 1500 м
[Ac trans]
+13.0 +7.9 71 +13 +13 1028.1 1014.0 +19.0
03 18.06 штиль 0 20 км 4/0 1500 м
[Ac trans]
+10.0 +6.1 77 +9 +9 1028.7 1014.4
09 18.06 штиль 0 20 км 5/0 1500 м
[Ac As]
+8.0 +5.8 86 +7 +7 1028.4 1014.0
12 18.06 штиль 0 20 км ясно +9.0 +4.5 73 +8 +11 1028.7 1014.4 +5.0
15 18.06 штиль 0 20 км ясно +17.4 +6.4 48 +17 +30 опасность
простуды
1028.9 1015.0
18 18.06 штиль 0 20 км ясно +22.0 +6.2 36 +23 +31 комфорт 1026.7 1013.0
21 18.06 штиль 0 20 км ясно +21.0 +7.4 41 +22 +22 комфорт 1023.7 1010.0
00 19.06 штиль 0 20 км ясно +13.6 +6.0 60 +13 +13 1024.1 1010.0 +23.0
06 19.06 штиль 0 20 км ясно +9.8 +8.1 89 +9 +9 1023.6 1009.4
09 19.06 штиль 0 20 км ясно +10.0 +7.9 87 +9 +9 1022.2 1008.0
12 19.06 ЮЗ 2 20 км ясно +14.0 +10.5 79 +13 +15 1022.0 1008.0 +8.0
15 19.06 СВ 2 20 км ясно +22.4 +13.3 56 +25 +34 комфорт 1022.6 1009.0
18 19.06 СВ 2 20 км ясно +26.0 +16.2 55 +29 +35 душно 1020.4 1007.0
21 19.06 штиль 0 20 км ясно +25.0 +17.4 63 +29 +29 душно 1017.4 1004.0
00 20.06 штиль 0 20 км ясно +19.0 +14.9 77 +20 +20 1018.5 1004.8 +28.0
03 20.06 С 2 20 км ясно +18.0 +14.8 82 +19 +19 1019.2 1005.4
09 20.06 штиль 0 20 км ясно +16.0 +12.7 81 +16 +16 1019.9 1005.0
12 20.06 штиль 0 20 км ясно +13.0 +11.1 88 +12 +15 1020.0 1006.0 +13.0
15 20.06 штиль 0 20 км ясно +23.4 +12.3 50 +26 +38 жарко 1020.5 1007.0
18 20.06 СВ 3 20 км ясно +28.4 +14.5 43 +31 +36 душно 1019.7 1006.4
21 20.06 штиль 0 20 км ясно +27.0 +17.5 56 +31 +31 душно 1016.3 1003.3
00 21.06 штиль 0 20 км ясно +21.0 +16.0 73 +24 +24 комфорт 1017.6 1004.0 +29.0
03 21.06 С 3 20 км ясно +20.0 +16.7 81 +23 +23 комфорт 1016.6 1003.0
06 21.06 С 2 20 км ясно +36.4 +19.0 36 +41 +41 опасность
перегрева
1015.7 1002.0
09 21.06 С 2 20 км ясно +18.0 +16.3 90 +19 +19 1015.7 1002.0
12 21.06 штиль 0 20 км 5/0
[Ci]
+22.0 +13.3 58 +25 +27 комфорт 1016.3 1002.8 +13.0
15 21.06 СВ 3 20 км 5/0 2000 м
[Ac trans]
+27.0 +15.5 49 +30 +35 душно 1017.1 1003.8
18 21.06 штиль 0 20 км 6/0 1500 м
[Ac cast Cs]
+29.0 +14.0 40 +31 +37 жарко 1014.2 1001.0
21 21.06 штиль 0 20 км 5/0
[Cs]
+28.0 +18.7 57 +33 +33 очень
душно
1013.3 1000.0
00 22.06 штиль 0 20 км 5/0
[Ci]
+22.0 +18.8 82 +27 +27 душно 1015.8 1002.3 +36.4
03 22.06 штиль 0 20 км ясно +19.0 +17.3 90 +20 +20 1016.7 1003.0
12 22.06 штиль 0 20 км ясно +16.0 +14.2 89 +16 +18 1017.5 1003.7 +15.0
15 22.06 СВ 3 20 км ясно +26.4 +16.0 53 +30 +37 душно 1017.4 1004.0
18 22.06 СВ 3 20 км ясно +29.0 +14.0 40 +31 +36 жарко 1015.2 1002.0
00 23.06 С 2 20 км ясно +23.0 +16.7 68 +28 +28 душно 1012.4 999.0 +30.0

 

Местоположение метеостанции Paraguari (Парагвай): широта -25.63 долгота -57.13 высота над уровнем моря 116 м.

В архиве по умолчанию представлена погода в Paraguari за последнюю неделю. Архивные данные за месяц целиком и за предыдущие месяцы, начиная с января 2011 года, Вы можете получить, выбрав интересующий диапазон дат из раскрывающегося списка и нажав кнопку "Ввод!".


*Определитесь, кто Вы:
робот инопланетянин человек

Внимание! Время в таблицах - всемирное. Для получения местного времени необходимо прибавить поправку, которая в Paraguari равна -4 ч.

Смотрите также архив погоды в соседних городах и на ближайших метеорологических станциях:

Погода в Asuncion (Парагвай) (57 км)
Погода в Quyquyhat (Парагвай) (67 км)
Погода в Villarrica (Парагвай) (71 км)
Погода в Coronel Oviedo (Парагвай) (80 км)
Погода в Caazapa (Парагвай) (99 км)
Погода в San Juan Bautista Misiones (Парагвай) (115 км)
Погода в Formosa (Аргентина) (127 км)
Погода в San Estanislao (Парагвай) (130 км)
Погода в San Pedro (Парагвай) (175 км)
Погода в Pilar (Парагвай) (180 км)

Пояснения к столбцам:

Ветер - указаны скорость ветра в м/с - средняя за 10 мин, порывы в срок и между сроками (в фигурных скобках) и направление, откуда дует ветер: С - северный, СВ - северо-восточный, В - восточный, ЮВ - юго-восточный, Ю - южный, ЮЗ - юго-западный, З - западный, СЗ - северо-западный.
Видимость - горизонтальная дальность видимости в метрах или километрах. При видимости от 1 до 10 км при отсутствии осадков обычно наблюдается дымка, при ухудшении видимости до 1 км и менее - туман. В сухую погоду видимость может ухудшаться дымом, пылью или мглою.
Явления - указаны атмосферные явления, наблюдавшиеся в срок или в последний час перед сроком; фигурными скобками обозначены явления, наблюдавшиеся между сроками (за 1-3 часа до срока); квадратными скобками обозначены град или гололедные отложения с указанием их диаметра в мм.
Облачность - указаны через наклонную черту общая и нижняя облачность в баллах и высота нижней границы облаков в метрах; квадратными скобками обозначены формы облаков: Ci - перистые, Cs - перисто-слоистые, Cc - перисто-кучевые, Ac - высококучевые, As - высокослоистые, Sc - слоисто-кучевые, Ns - слоисто-дождевые, Cu - кучевые, Cb - кучево-дождевые. Подробнее классификацию облаков см. в Атласе облаков (PDF).
T - Температура воздуха - температура, измеренная на высоте 2 м над землей.
Td - Температура точки росы - температура, при понижении до которой содержащийся в воздухе водяной пар достигнет насыщения.
f - Относительная влажность воздуха - влажноcть воздуха, измеренная на высоте 2 м над землей.
Te - Эффективная температура - температура, которую ощущает одетый по сезону человек в тени. Характеристика душности погоды. При расчете учитывается влияние влажности воздуха и скорости ветра на теплоощущения человека.
Tes - Эффективная температура на солнце - температура, которую ощущает человек, с поправкой на солнечный нагрев. Характеристика знойности погоды. Зависит от высоты солнца над горизонтом, облачности и скорости ветра. Ночью, в пасмурную погоду, а также при ветре 12 м/с и более поправка равна нулю.
P - Атмосферное давление - приведенное к уровню моря атмосферное давление.
Po - Атмосферное давление - измеренное на уровне метеостанции атмосферное давление.
Tmin - Минимальная температура - минимум температуры воздуха на высоте 2 м над землей.
Tmax - Максимальная температура - максимум температуры воздуха на высоте 2 м над землей.
R - Количество осадков - Количество выпавших осадков за период времени, мм. При наведении курсора мыши на число - период времени, за который выпало указанное количество осадков.
R24 - Количество осадков - Количество выпавших осадков за 24 часа, мм.
S - Снежный покров - Высота снежного покрова, см. При наведении курсора мыши на число - состояние снежного покрова и степень покрытия местности в баллах.